�N����,����,����,����,����,�C��,���x,�~����,���Ǝ���,�S�V����,�ő�u�ԕ���,,,
,,,,,,,,,,����,����,����,�N��
yyyy/mm/dd,hh:mm:ss,(16),16����,m/s,��,%,mm,min,KW/�u,(16),16����,m/s,Time
2011/10/1,1:00:00,360,�k,0.7,9.6,85.7,0,0,0.01,293,���k��,9.1,27
2011/10/1,2:00:00,338,�k�k��,0.8,7.3,93.3,0,0,0.01,338,�k�k��,3.1,30
2011/10/1,3:00:00,270,��,0.7,7.2,97.6,0,0,0.01,315,�k��,3.9,58
2011/10/1,4:00:00,315,�k��,2.1,7.5,98.3,0,0,0.01,315,�k��,4.4,47
2011/10/1,5:00:00,23,�É�,0,5.6,97.5,0,0,0.01,293,���k��,2.6,3
2011/10/1,6:00:00,68,���k��,0.3,7.4,87.1,0,0,0.02,315,�k��,5.1,10
2011/10/1,7:00:00,338,�k�k��,2.1,10.8,79.6,0,22,0.11,338,�k�k��,4.8,56
2011/10/1,8:00:00,338,�k�k��,2.1,13.5,66.1,0,59,0.37,360,�k,4.7,48
2011/10/1,9:00:00,338,�k�k��,2.3,15,60.9,0,60,0.56,315,�k��,5.7,30
2011/10/1,10:00:00,338,�k�k��,3,15.5,49.6,0,60,0.59,315,�k��,7.6,50
2011/10/1,11:00:00,315,�k��,2.3,17.5,46.2,0,60,0.68,315,�k��,6,29
2011/10/1,12:00:00,360,�k,2.1,15.7,55.7,0,60,0.66,315,�k��,6.7,19
2011/10/1,13:00:00,158,��쓌,2.6,16.4,61.5,0,60,0.31,180,��,5.5,58
2011/10/1,14:00:00,203,��쐼,2.9,14.5,67.7,0,57,0.32,203,��쐼,5.9,56
2011/10/1,15:00:00,180,��,3.1,15.8,61.9,0,53,0.37,180,��,5.2,6
2011/10/1,16:00:00,203,�É�,0.2,13.8,76.7,0,18,0.11,158,��쓌,4.3,15
2011/10/1,17:00:00,360,�k,2.5,12.4,66.4,0,0,0.03,293,���k��,6.2,39
2011/10/1,18:00:00,315,�k��,2.5,10.8,76,0,0,0.01,338,�k�k��,6.1,25
2011/10/1,19:00:00,315,�k��,2.1,9.4,77.2,0,0,0.01,315,�k��,3.9,27
2011/10/1,20:00:00,203,�É�,0,5.6,91.5,0,0,0.01,315,�k��,5,5
2011/10/1,21:00:00,315,�k��,2.9,7.2,84.9,0,0,0.01,315,�k��,4.8,55
2011/10/1,22:00:00,315,�k��,1.1,6.1,86.3,0,0,0.01,315,�k��,4.6,6
2011/10/1,23:00:00,315,�k��,1.9,4.6,93.6,0,0,0.01,315,�k��,2.8,57
2011/10/1,0:00:00,338,�k�k��,1.8,5.6,82.5,0,0,0.01,315,�k��,3.7,2
2011/10/2,1:00:00,315,�k��,1.5,3.4,89,0,0,0.01,315,�k��,3.1,39
2011/10/2,2:00:00,248,�É�,0,1.3,96.5,0,0,0.01,315,�k��,2.5,8
2011/10/2,3:00:00,293,���k��,1.6,0.6,99,0,0,0.01,293,���k��,2,51
2011/10/2,4:00:00,293,���k��,2,0.6,99.1,0,0,0.01,293,���k��,2.6,17
2011/10/2,5:00:00,293,���k��,1.8,0.5,98.5,0,0,0.01,293,���k��,3.4,46
2011/10/2,6:00:00,293,���k��,1.3,1,98.4,0,0,0.03,270,��,2.8,27
2011/10/2,7:00:00,293,���k��,0.4,4.7,87,0,50,0.19,270,��,3.4,18
2011/10/2,8:00:00,180,��,1.4,9,77,0,60,0.38,203,��쐼,2.6,50
2011/10/2,9:00:00,158,��쓌,2.5,12.6,60.7,0,60,0.56,180,��,5.6,16
2011/10/2,10:00:00,180,��,4.7,14.3,49,0,60,0.68,158,��쓌,10,47
2011/10/2,11:00:00,248,���쐼,4.8,10.8,86.4,0,34,0.34,225,�쐼,12.3,45
2011/10/2,12:00:00,203,��쐼,3.4,10.6,77.1,0,49,0.61,225,�쐼,7,16
2011/10/2,13:00:00,180,��,3.5,11.2,78.6,0.5,53,0.27,180,��,9.1,18
2011/10/2,14:00:00,225,�쐼,7,13.1,63.1,0,60,0.4,225,�쐼,13.8,31
2011/10/2,15:00:00,270,��,6.9,14.3,48.1,0,60,0.49,270,��,13.2,45
2011/10/2,16:00:00,270,��,6,13.1,43.5,0,60,0.3,293,���k��,13.9,26
2011/10/2,17:00:00,270,��,4.8,11.2,48.1,0,18,0.09,248,���쐼,9.9,1
2011/10/2,18:00:00,270,��,2.9,8.8,55.8,0,0,0.01,270,��,9.9,11
2011/10/2,19:00:00,293,���k��,1.3,3.7,85.6,0,0,0.01,293,���k��,2.8,57
2011/10/2,20:00:00,270,��,1.2,2,90.2,0,0,0.01,270,��,3.3,2
2011/10/2,21:00:00,293,���k��,1.2,4.8,75.7,0,0,0.01,248,���쐼,4.5,24
2011/10/2,22:00:00,293,���k��,1.8,2.1,93.8,0,0,0.01,270,��,3.8,28
2011/10/2,23:00:00,158,��쓌,0.8,1,92.4,0,0,0.01,248,���쐼,7,25
2011/10/2,0:00:00,315,�k��,1.1,0.2,98,0,0,0.01,293,���k��,2.9,59
2011/10/3,1:00:00,315,�k��,0.7,0,96.6,0,0,0.01,338,�k�k��,4.3,17
2011/10/3,2:00:00,315,�k��,0.8,-0.5,97.4,0,0,0.01,293,���k��,4,18
2011/10/3,3:00:00,270,��,1.7,-0.7,98.8,0,0,0.01,315,�k��,2.9,47
2011/10/3,4:00:00,293,���k��,2.1,-1.5,98.4,0,0,0.01,23,�k�k��,4.4,28
2011/10/3,5:00:00,293,���k��,2.5,-0.8,98.8,0,0,0.01,293,���k��,3.3,56
2011/10/3,6:00:00,315,�k��,2.5,-0.5,97.8,0,0,0.03,293,���k��,4.5,10
2011/10/3,7:00:00,270,��,2.2,2.7,90,0,51,0.18,45,�k��,3.9,3
2011/10/3,8:00:00,315,�k��,1.8,7.5,76.1,0,60,0.37,293,���k��,3.3,8
2011/10/3,9:00:00,68,���k��,0.6,11.5,50.7,0,60,0.56,360,�k,2.8,4
2011/10/3,10:00:00,23,�k�k��,1.9,12.6,47.1,0,60,0.71,338,�k�k��,4.1,56
2011/10/3,11:00:00,135,�쓌,2,10.4,55.4,0,60,0.45,68,���k��,5.7,37
2011/10/3,12:00:00,158,��쓌,2.2,10.5,52.9,0,60,0.44,113,���쓌,5.5,38
2011/10/3,13:00:00,180,��,1.8,10.8,54.8,0,60,0.21,135,�쓌,3.7,7
2011/10/3,14:00:00,180,��,1.7,10.9,56.1,0,46,0.15,158,��쓌,3.8,5
2011/10/3,15:00:00,315,�k��,0.3,12.1,54.6,0,53,0.16,270,��,2.5,27
2011/10/3,16:00:00,338,�k�k��,1.3,9.2,63,0,13,0.11,293,���k��,4.3,35
2011/10/3,17:00:00,338,�k�k��,1.8,7.7,61,0,7,0.07,315,�k��,5.5,8
2011/10/3,18:00:00,338,�k�k��,1.8,6.4,68.8,0,0,0.01,338,�k�k��,4.3,27
2011/10/3,19:00:00,315,�k��,1.5,4.1,82.3,0,0,0.01,338,�k�k��,5.3,23
2011/10/3,20:00:00,315,�k��,2.9,4.5,82.1,0,0,0.01,338,�k�k��,4.5,58
2011/10/3,21:00:00,293,���k��,1.4,1.4,91.6,0,0,0.01,315,�k��,4.1,0
2011/10/3,22:00:00,270,��,1.2,0.3,94.5,0,0,0.01,248,���쐼,3.1,59
2011/10/3,23:00:00,315,�k��,3.5,1.5,93.4,0,0,0.01,315,�k��,4.8,55
2011/10/3,0:00:00,315,�k��,3,1.6,88.1,0,0,0.01,293,���k��,4.9,36
2011/10/4,1:00:00,293,���k��,2.4,0.9,90.7,0,0,0.01,315,�k��,4.5,13
2011/10/4,2:00:00,293,���k��,2.8,0.3,91.8,0,0,0.01,293,���k��,5.5,34
2011/10/4,3:00:00,293,���k��,3,0.3,90.9,0,0,0.01,315,�k��,4.6,28
2011/10/4,4:00:00,293,���k��,2.9,-0.3,91.1,0,0,0.01,315,�k��,5,11
2011/10/4,5:00:00,293,���k��,3,-0.6,93.2,0,0,0.01,293,���k��,4.7,32
2011/10/4,6:00:00,293,���k��,2.5,-0.5,93.2,0,0,0.03,293,���k��,4.5,8
2011/10/4,7:00:00,270,��,1.6,3.5,81.2,0,46,0.17,293,���k��,3.9,18
2011/10/4,8:00:00,293,���k��,1,8.1,69.9,0,60,0.36,293,���k��,2.2,41
2011/10/4,9:00:00,113,���쓌,1.8,12,59.2,0,60,0.55,158,��쓌,3.8,31
2011/10/4,10:00:00,158,��쓌,2.3,14.3,44,0,60,0.67,180,��,4.3,59
2011/10/4,11:00:00,135,�쓌,2.6,15.2,44.9,0,60,0.73,135,�쓌,5,58
2011/10/4,12:00:00,360,�k,2,16.9,40.5,0,60,0.76,135,�쓌,4.9,5
2011/10/4,13:00:00,158,��쓌,2.1,17.4,44.1,0,60,0.71,203,��쐼,6,52
2011/10/4,14:00:00,135,�쓌,2.5,17,42.4,0,60,0.61,90,��,5.7,40
2011/10/4,15:00:00,158,��쓌,2.1,16.8,48.2,0,60,0.48,135,�쓌,4.6,19
2011/10/4,16:00:00,203,��쐼,1,16,57.7,0,60,0.29,158,��쓌,3.5,4
2011/10/4,17:00:00,225,�쐼,0.6,10.4,81.6,0,12,0.07,225,�쐼,3.5,29
2011/10/4,18:00:00,293,���k��,1.3,7.5,94.2,0,0,0.01,315,�k��,2.1,57
2011/10/4,19:00:00,270,��,1.2,5.3,93.2,0,0,0.01,293,���k��,2.4,31
2011/10/4,20:00:00,293,���k��,2.6,6.1,96.6,0,0,0.01,293,���k��,3.5,55
2011/10/4,21:00:00,293,���k��,2.5,5.5,96.6,0,0,0.01,293,���k��,3.6,49
2011/10/4,22:00:00,293,���k��,2.8,5.2,96.6,0,0,0.01,293,���k��,4.1,44
2011/10/4,23:00:00,270,��,2.5,4.8,97.4,0,0,0.01,293,���k��,3.8,21
2011/10/4,0:00:00,293,���k��,2.4,4.5,97.3,0,0,0.01,270,��,3.5,25
2011/10/5,1:00:00,293,���k��,2.6,3.8,97.4,0,0,0.01,293,���k��,4.1,26
2011/10/5,2:00:00,293,���k��,2.4,4.1,96.4,0,0,0.01,293,���k��,3.8,43
2011/10/5,3:00:00,270,��,2.5,3.5,97.3,0,0,0.01,293,���k��,3.5,43
2011/10/5,4:00:00,293,���k��,2.6,3.4,97.3,0,0,0.01,293,���k��,4.2,28
2011/10/5,5:00:00,293,���k��,1.9,2.9,98.1,0,0,0.01,293,���k��,4.1,17
2011/10/5,6:00:00,293,���k��,1.1,3.2,98.5,0,0,0.02,293,���k��,3.5,5
2011/10/5,7:00:00,293,���k��,1.8,7.1,91.9,0,43,0.16,293,���k��,3.1,58
2011/10/5,8:00:00,270,��,1.6,12.1,79.3,0,60,0.35,270,��,3.4,6
2011/10/5,9:00:00,225,�쐼,2.5,17.3,62.6,0,60,0.48,225,�쐼,4.4,56
2011/10/5,10:00:00,248,���쐼,3.9,20.4,40.1,0,60,0.67,225,�쐼,7,53
2011/10/5,11:00:00,225,�쐼,3.7,20.9,39.1,0,60,0.72,248,���쐼,8.6,9
2011/10/5,12:00:00,225,�쐼,3.6,20.3,47.3,0,60,0.66,158,��쓌,7.7,32
2011/10/5,13:00:00,248,���쐼,3.9,20.7,38.3,0,59,0.55,248,���쐼,8.3,28
2011/10/5,14:00:00,248,���쐼,5,20.8,38.5,0,60,0.62,225,�쐼,8,37
2011/10/5,15:00:00,225,�쐼,3.8,19.5,46.3,0,60,0.47,248,���쐼,7.4,1
2011/10/5,16:00:00,225,�쐼,3.5,17.6,50.8,0,60,0.27,225,�쐼,8.8,31
2011/10/5,17:00:00,248,���쐼,3.4,14.9,58.5,0,15,0.08,248,���쐼,5.9,54
2011/10/5,18:00:00,248,���쐼,3,11.6,71.3,0,0,0.01,225,�쐼,5.1,4
2011/10/5,19:00:00,270,��,2.8,8.4,87.3,0,0,0.01,248,���쐼,4.1,1
2011/10/5,20:00:00,45,�k��,1,7.5,87.1,0,0,0.01,270,��,4.5,29
2011/10/5,21:00:00,270,��,3,7,93.5,0,0,0.01,270,��,3.8,59
2011/10/5,22:00:00,293,���k��,2.7,6.6,94.6,0,0,0.01,293,���k��,3.9,3
2011/10/5,23:00:00,270,��,1.6,5.7,93.7,0,0,0.01,293,���k��,4.2,2
2011/10/5,0:00:00,293,���k��,2,5.3,95.8,0,0,0.01,293,���k��,2.4,59
2011/10/6,1:00:00,293,���k��,0.8,5.5,94.7,0,0,0.01,293,���k��,3,43
2011/10/6,2:00:00,315,�k��,1.4,6.9,88,0,0,0.01,315,�k��,3.3,42
2011/10/6,3:00:00,293,���k��,1.7,7.5,90.6,0,0,0.01,293,���k��,3.3,14
2011/10/6,4:00:00,315,�k��,2.5,9.3,83.6,0,0,0.01,315,�k��,5.2,55
2011/10/6,5:00:00,315,�k��,2.9,9.2,85.2,0,0,0.01,293,���k��,5.3,51
2011/10/6,6:00:00,270,��,2.8,8.8,94.3,0.5,0,0.01,315,�k��,6.1,11
2011/10/6,7:00:00,315,�k��,2.1,8.8,93.3,0.5,0,0.02,270,��,5.3,13
2011/10/6,8:00:00,293,���k��,2.5,9.3,94.5,0,7,0.08,315,�k��,3.6,59
2011/10/6,9:00:00,315,�k��,2.7,10.1,91,0,60,0.14,315,�k��,6.4,24
2011/10/6,10:00:00,360,�É�,0.2,11.3,92,0.5,60,0.15,338,�k�k��,5.4,5
2011/10/6,11:00:00,315,�k��,0.4,11.8,94.8,0.5,60,0.16,315,�k��,2.5,37
2011/10/6,12:00:00,270,��,1.5,12.3,95.3,0.5,60,0.18,270,��,2.3,59
2011/10/6,13:00:00,315,�k��,1.2,13.4,94.8,0,60,0.26,338,�k�k��,2.4,47
2011/10/6,14:00:00,23,�É�,0.2,12.9,90.6,0,22,0.13,315,�k��,2.1,6
2011/10/6,15:00:00,338,�É�,0.2,12.8,92.9,0,0,0.07,293,���k��,1.6,44
2011/10/6,16:00:00,293,���k��,1.2,12.4,95.8,0.5,0,0.05,293,���k��,1.7,53
2011/10/6,17:00:00,338,�k�k��,0.9,11.9,96.3,0,0,0.02,315,�k��,2.7,4
2011/10/6,18:00:00,315,�k��,1.5,11.7,95.6,0,0,0.01,338,�k�k��,2.5,59
2011/10/6,19:00:00,293,���k��,2,11.5,97.2,0,0,0.01,248,���쐼,3.7,44
2011/10/6,20:00:00,315,�k��,2.1,11.4,97.6,0,0,0.01,338,�k�k��,3.4,13
2011/10/6,21:00:00,315,�k��,1.3,11.1,97,0,0,0.01,315,�k��,3.4,13
2011/10/6,22:00:00,293,���k��,1.3,10.9,97.8,0,0,0.01,338,�k�k��,2.4,30
2011/10/6,23:00:00,293,���k��,0.6,10.5,98.3,0,0,0.01,315,�k��,1.9,48
2011/10/6,0:00:00,338,�É�,0.1,10.7,98.7,0,0,0.01,293,���k��,2,5
2011/10/7,1:00:00,293,�É�,0,9.6,98.7,0,0,0.01,270,��,1.3,23
2011/10/7,2:00:00,23,�É�,0.2,10.1,99.1,0,0,0.01,45,�k��,1,57
2011/10/7,3:00:00,113,���쓌,2.3,12.3,99.4,2.5,0,0.01,135,�쓌,4.1,55
2011/10/7,4:00:00,90,��,3.3,12.8,97.9,3.5,0,0.01,113,���쓌,5,47
2011/10/7,5:00:00,360,�k,0.9,12.5,98.1,13,0,0.01,270,��,5.3,38
2011/10/7,6:00:00,90,��,6.3,12.7,97.9,5,0,0.01,90,��,10.9,31
2011/10/7,7:00:00,23,�k�k��,0.9,12.4,97.6,3,0,0.01,68,���k��,8.7,10
2011/10/7,8:00:00,293,�É�,0,12.5,97.9,2,0,0.04,68,���k��,2.4,5
2011/10/7,9:00:00,45,�k��,0.8,14.2,85.8,0,54,0.34,360,�k,4.3,11
2011/10/7,10:00:00,113,���쓌,2.5,15.5,79.8,0,60,0.41,113,���쓌,3.7,58
2011/10/7,11:00:00,293,���k��,1.7,12.7,93.1,1.5,43,0.2,113,���쓌,4.6,9
2011/10/7,12:00:00,315,�k��,2.9,14.4,88.9,1,38,0.2,315,�k��,5.4,53
2011/10/7,13:00:00,338,�k�k��,4.2,14.4,75.4,0,60,0.4,338,�k�k��,9.2,46
2011/10/7,14:00:00,338,�k�k��,4.3,15.4,71.2,0,60,0.38,360,�k,10.1,56
2011/10/7,15:00:00,338,�k�k��,4.9,14.2,75.1,0,60,0.49,338,�k�k��,13.5,47
2011/10/7,16:00:00,338,�k�k��,3.9,12.1,84.4,0,15,0.09,338,�k�k��,9.8,0
2011/10/7,17:00:00,338,�k�k��,3.2,12.5,83.7,0,0,0.05,315,�k��,7.7,49
2011/10/7,18:00:00,338,�k�k��,2.4,12.3,83.9,0,0,0.01,360,�k,7.4,44
2011/10/7,19:00:00,360,�k,2.9,12.6,81.7,0,0,0.01,360,�k,7,25
2011/10/7,20:00:00,315,�k��,2.5,12,84.7,0,0,0.01,360,�k,7.8,7
2011/10/7,21:00:00,338,�k�k��,1.9,12,85.8,0,0,0.01,338,�k�k��,6,26
2011/10/7,22:00:00,315,�k��,0.4,11.8,84.7,0,0,0.01,360,�k,4.6,30
2011/10/7,23:00:00,315,�k��,1.3,11.1,90,0,0,0.01,315,�k��,2.7,37
2011/10/7,0:00:00,315,�k��,0.9,11,90.7,0,0,0.01,315,�k��,3.1,37
2011/10/8,1:00:00,270,��,0.5,10.3,95.7,0,0,0.01,180,��,2,22
2011/10/8,2:00:00,68,���k��,0.6,10.2,95.8,0,0,0.01,248,���쐼,2.5,24
2011/10/8,3:00:00,248,�É�,0,9.5,96.2,0,0,0.01,113,���쓌,1.3,32
2011/10/8,4:00:00,360,�k,0.3,9.2,92,0,0,0.01,315,�k��,2.2,41
2011/10/8,5:00:00,293,���k��,1,5.6,97.6,0,0,0.01,293,���k��,2,59
2011/10/8,6:00:00,293,���k��,2.6,6.3,98.7,0,0,0.02,270,��,3.4,43
2011/10/8,7:00:00,293,���k��,1.8,8.9,91.6,0,27,0.12,293,���k��,4.1,28
2011/10/8,8:00:00,293,���k��,2.2,12.5,81.8,0,60,0.31,315,�k��,3.2,12
2011/10/8,9:00:00,293,���k��,0.6,14.6,68.5,0,60,0.48,315,�k��,3.4,16
2011/10/8,10:00:00,158,��쓌,1.9,15.7,60.5,0,60,0.6,158,��쓌,3.2,59
2011/10/8,11:00:00,135,�쓌,2.7,15.8,58,0,60,0.68,135,�쓌,4.2,59
2011/10/8,12:00:00,135,�쓌,3,16.1,67.8,0,60,0.71,158,��쓌,5.1,56
2011/10/8,13:00:00,158,��쓌,2.8,15.8,66.3,0,60,0.66,135,�쓌,5.5,34
2011/10/8,14:00:00,158,��쓌,2.8,14.9,75.5,0,60,0.54,180,��,5.3,12
2011/10/8,15:00:00,135,�쓌,2.1,15.4,79.8,0,60,0.34,135,�쓌,4.8,28
2011/10/8,16:00:00,45,�k��,1.2,15.3,84.5,0,60,0.24,135,�쓌,3.4,8
2011/10/8,17:00:00,360,�k,1,12.8,91.4,0,5,0.06,23,�k�k��,2.7,25
2011/10/8,18:00:00,248,���쐼,2.1,9.9,97.5,0,0,0.01,248,���쐼,3.1,52
2011/10/8,19:00:00,315,�k��,1.4,10.1,98.2,0,0,0.01,315,�k��,2.4,48
2011/10/8,20:00:00,293,���k��,1.5,9.1,98.3,0,0,0.01,293,���k��,2.1,52
2011/10/8,21:00:00,293,���k��,2.5,8.4,98.4,0,0,0.01,315,�k��,3.2,47
2011/10/8,22:00:00,293,���k��,1.4,8.4,98.2,0,0,0.01,315,�k��,3.2,0
2011/10/8,23:00:00,293,���k��,1.9,7.5,98.4,0,0,0.01,293,���k��,2.9,36
2011/10/8,0:00:00,315,�k��,1.8,6.3,98.3,0,0,0.01,293,���k��,3.1,49
2011/10/9,1:00:00,270,��,2.4,5.8,98.7,0,0,0.01,293,���k��,3.1,36
2011/10/9,2:00:00,270,��,1.6,5.1,98.8,0,0,0.01,293,���k��,3.1,17
2011/10/9,3:00:00,293,���k��,1.3,5.8,99,0,0,0.01,293,���k��,2.8,11
2011/10/9,4:00:00,293,���k��,1.6,7,99,0,0,0.01,293,���k��,3.3,3
2011/10/9,5:00:00,293,���k��,2.2,7.4,98.5,0,0,0.01,293,���k��,3.8,37
2011/10/9,6:00:00,293,���k��,2.3,7.6,99,0,0,0.01,315,�k��,3.9,7
2011/10/9,7:00:00,293,���k��,1.8,8.3,99.3,0,3,0.06,293,���k��,3.4,3
2011/10/9,8:00:00,90,�É�,0,9.9,98.3,0,60,0.19,315,�k��,2.5,10
2011/10/9,9:00:00,68,���k��,0.5,11,98.4,0,60,0.34,23,�k�k��,2,31
2011/10/9,10:00:00,90,��,1.7,12,95,0,60,0.41,113,���쓌,3.1,11
2011/10/9,11:00:00,90,��,2,14.8,83.3,0,60,0.69,90,��,3.8,41
2011/10/9,12:00:00,113,���쓌,2.4,14.8,79,0,60,0.72,113,���쓌,3.6,16
2011/10/9,13:00:00,113,���쓌,2,16.2,75,0,60,0.65,113,���쓌,3.4,5
2011/10/9,14:00:00,113,���쓌,1.8,16.4,70.8,0,60,0.58,90,��,3.3,7
2011/10/9,15:00:00,90,��,1.4,15.8,79.6,0,60,0.42,135,�쓌,2.7,39
2011/10/9,16:00:00,158,�É�,0.1,14.3,85.1,0,57,0.23,113,���쓌,2.5,13
2011/10/9,17:00:00,338,�É�,0.2,10.6,94.7,0,0,0.05,90,��,2,7
2011/10/9,18:00:00,23,�k�k��,0.4,9,97.2,0,0,0.01,180,��,1.9,34
2011/10/9,19:00:00,225,�쐼,3.3,8.5,88.8,0,0,0.01,248,���쐼,4.5,50
2011/10/9,20:00:00,248,���쐼,3.7,9.8,82.9,0,0,0.01,248,���쐼,5,59
2011/10/9,21:00:00,203,��쐼,2,9.1,78.5,0,0,0.01,248,���쐼,4.6,0
2011/10/9,22:00:00,270,��,2.4,7.5,89.5,0,0,0.01,293,���k��,3.6,52
2011/10/9,23:00:00,293,���k��,2.8,6.4,94.1,0,0,0.01,293,���k��,4.5,57
2011/10/9,0:00:00,293,���k��,2.4,6.6,95.7,0,0,0.01,248,���쐼,4,15
2011/10/10,1:00:00,270,��,1.3,7,95,0,0,0.01,270,��,3.7,0
2011/10/10,2:00:00,225,�쐼,2.5,8.3,93.6,0,0,0.01,225,�쐼,3.6,55
2011/10/10,3:00:00,248,���쐼,1.7,8.2,94.2,0,0,0.01,203,��쐼,3.9,32
2011/10/10,4:00:00,293,���k��,2.1,7.6,95.8,0,0,0.01,293,���k��,3.1,21
2011/10/10,5:00:00,270,��,2.4,7.3,96.7,0,0,0.01,293,���k��,3.2,59
2011/10/10,6:00:00,293,���k��,2.4,7.7,96.2,0,0,0.01,293,���k��,3.9,40
2011/10/10,7:00:00,293,���k��,2.2,8.4,96.3,0,0,0.03,270,��,3.2,12
2011/10/10,8:00:00,180,��,1.1,10.9,95.6,0,10,0.09,270,��,2.8,2
2011/10/10,9:00:00,203,��쐼,2.7,15.5,74.2,0,60,0.19,203,��쐼,4.6,39
2011/10/10,10:00:00,180,��,1.7,15.8,68.6,0,60,0.2,203,��쐼,5.2,27
2011/10/10,11:00:00,225,�쐼,2.6,16.8,64.8,0,60,0.2,203,��쐼,5.5,45
2011/10/10,12:00:00,135,�쓌,3.8,16.3,75,0,60,0.22,135,�쓌,6.9,50
2011/10/10,13:00:00,225,�쐼,5.3,20.5,46.2,0,60,0.42,225,�쐼,11.4,53
2011/10/10,14:00:00,203,��쐼,4.8,19.5,57.3,0,60,0.5,225,�쐼,9.6,12
2011/10/10,15:00:00,203,��쐼,5,16.7,75.4,0,24,0.12,203,��쐼,9.1,19
2011/10/10,16:00:00,180,��,4.7,15.9,86.7,0,0,0.03,180,��,11.8,25
2011/10/10,17:00:00,225,�쐼,1.4,13.9,93.8,0.5,0,0.01,180,��,8.3,10
2011/10/10,18:00:00,360,�k,1.8,13.2,97,2.5,0,0.01,360,�k,2.9,54
2011/10/10,19:00:00,248,���쐼,0.3,11.7,97.2,0,0,0.01,315,�k��,3.5,16
2011/10/10,20:00:00,293,���k��,0.6,9.7,98.6,0,0,0.01,315,�k��,1.7,51
2011/10/10,21:00:00,338,�k�k��,0.7,9.3,99.2,0,0,0.01,293,���k��,2.5,22
2011/10/10,22:00:00,315,�k��,1.9,8.9,98.9,0,0,0.01,338,�k�k��,3.8,49
2011/10/10,23:00:00,315,�k��,1.8,8.7,99.2,0,0,0.01,338,�k�k��,3.7,12
2011/10/10,0:00:00,315,�k��,2.2,7.4,99.2,0,0,0.01,315,�k��,2.7,59
2011/10/11,1:00:00,203,��쐼,0.8,5.4,99,0,0,0.01,315,�k��,2.6,0
2011/10/11,2:00:00,270,��,2.3,5.7,99.3,0,0,0.01,270,��,2.9,57
2011/10/11,3:00:00,248,���쐼,0.6,5,99,0,0,0.01,315,�k��,4.4,29
2011/10/11,4:00:00,270,��,1.7,4.9,99.1,0,0,0.01,248,���쐼,3.2,48
2011/10/11,5:00:00,270,��,1.2,4.1,99.6,0,0,0.01,270,��,3.8,13
2011/10/11,6:00:00,293,���k��,2.3,4.9,99.5,0,0,0.02,293,���k��,3.1,53
2011/10/11,7:00:00,270,�É�,0.2,7.6,99.7,0,26,0.11,315,�k��,2.1,39
2011/10/11,8:00:00,23,�É�,0.1,10.7,85.2,0,60,0.31,315,�k��,2.4,29
2011/10/11,9:00:00,338,�k�k��,1.8,14.3,65.4,0,60,0.5,338,�k�k��,3,56
2011/10/11,10:00:00,68,���k��,2.2,16.3,56.2,0,60,0.62,90,��,4,53
2011/10/11,11:00:00,90,��,1.4,15.7,58,0,60,0.52,113,���쓌,4.6,57
2011/10/11,12:00:00,90,��,2,16.5,54.7,0,60,0.49,90,��,5.1,16
2011/10/11,13:00:00,360,�k,2.7,16.5,41.7,0,56,0.48,360,�k,7.8,47
2011/10/11,14:00:00,180,��,2.3,16.7,42.4,0,59,0.56,113,���쓌,5.4,28
2011/10/11,15:00:00,203,��쐼,2.6,16.1,53.8,0,60,0.43,180,��,4.7,39
2011/10/11,16:00:00,203,��쐼,1.2,14.8,62.4,0,59,0.24,180,��,3.6,31
2011/10/11,17:00:00,360,�k,1.8,10.5,85.1,0,0,0.05,23,�k�k��,2.9,46
2011/10/11,18:00:00,293,���k��,2.1,7.2,93.7,0,0,0.01,293,���k��,2.6,59
2011/10/11,19:00:00,315,�k��,1.5,5.9,94.2,0,0,0.01,270,��,3.1,0
2011/10/11,20:00:00,315,�k��,1.7,5,93.6,0,0,0.01,270,��,4.6,22
2011/10/11,21:00:00,293,���k��,2.5,3.7,97.3,0,0,0.01,293,���k��,3.2,59
2011/10/11,22:00:00,293,���k��,2.3,3.4,96.6,0,0,0.01,315,�k��,3.6,3
2011/10/11,23:00:00,293,���k��,2,3.1,97.2,0,0,0.01,293,���k��,2.9,20
2011/10/11,0:00:00,315,�k��,2,2.8,96.9,0,0,0.01,315,�k��,3.4,30
2011/10/12,1:00:00,270,��,1.6,2.6,95.7,0,0,0.01,293,���k��,4.4,30
2011/10/12,2:00:00,293,���k��,2.8,2.7,94.3,0,0,0.01,293,���k��,4.2,39
2011/10/12,3:00:00,293,���k��,2.3,2.4,95.5,0,0,0.01,293,���k��,4,0
2011/10/12,4:00:00,293,���k��,1.9,2,96.9,0,0,0.01,293,���k��,3.6,40
2011/10/12,5:00:00,293,���k��,1.2,1.8,97.6,0,0,0.01,293,���k��,3.2,18
2011/10/12,6:00:00,293,���k��,2.4,2.2,98.3,0,0,0.02,293,���k��,3.3,50
2011/10/12,7:00:00,293,���k��,2.2,5.5,89.8,0,28,0.17,293,���k��,3.3,59
2011/10/12,8:00:00,270,��,0.9,11.3,65.6,0,60,0.43,315,�k��,4.2,18
2011/10/12,9:00:00,113,���쓌,1.6,13,70,0,60,0.45,113,���쓌,4,40
2011/10/12,10:00:00,113,���쓌,2.8,14,70.6,0,60,0.51,90,��,4.2,56
2011/10/12,11:00:00,135,�쓌,1.4,13.9,77,0,60,0.45,113,���쓌,4.5,2
2011/10/12,12:00:00,225,�쐼,2,15.6,55.1,0,60,0.58,270,��,4.1,48
2011/10/12,13:00:00,293,���k��,2.3,16.9,43.2,0,60,0.49,270,��,6.4,24
2011/10/12,14:00:00,248,���쐼,3.8,15.1,52.2,0,47,0.26,270,��,7.4,45
2011/10/12,15:00:00,225,�쐼,2,15.3,55.7,0,35,0.17,270,��,6.4,17
2011/10/12,16:00:00,225,�쐼,3,14.1,61.9,0,44,0.17,225,�쐼,5.3,44
2011/10/12,17:00:00,225,�쐼,2.5,12.6,69.5,0,0,0.02,203,��쐼,5.1,23
2011/10/12,18:00:00,338,�k�k��,2.6,10.3,88.2,0.5,0,0.01,338,�k�k��,8.5,25
2011/10/12,19:00:00,338,�k�k��,4.2,9.1,93.4,3,0,0.01,315,�k��,9,51
2011/10/12,20:00:00,293,���k��,1.2,6.7,95.2,0.5,0,0.01,360,�k,5,5
2011/10/12,21:00:00,248,�É�,0,6.7,96.3,0,0,0.01,338,�k�k��,5.5,16
2011/10/12,22:00:00,270,��,1.5,4.5,98.3,0,0,0.01,248,���쐼,2.5,7
2011/10/12,23:00:00,225,�쐼,3,4.9,98.8,0,0,0.01,203,��쐼,4.6,58
2011/10/12,0:00:00,293,���k��,1.4,3.2,98.8,0,0,0.01,248,���쐼,4.5,1
2011/10/13,1:00:00,293,���k��,1.7,3.5,99.3,0,0,0.01,338,�k�k��,2.7,15
2011/10/13,2:00:00,293,���k��,2.2,3.7,99.1,0,0,0.01,315,�k��,3.9,47
2011/10/13,3:00:00,360,�k,0.4,2.3,99.4,0,0,0.01,293,���k��,3.6,37
2011/10/13,4:00:00,293,���k��,3.3,3.4,99.5,0,0,0.01,293,���k��,4.5,0
2011/10/13,5:00:00,270,��,2.8,2.5,98.9,0,0,0.01,293,���k��,5.2,1
2011/10/13,6:00:00,293,���k��,2.5,2.6,98.2,0,0,0.01,315,�k��,5.1,51
2011/10/13,7:00:00,293,���k��,1.8,5.7,89,0,24,0.1,293,���k��,5.1,20
2011/10/13,8:00:00,293,���k��,2.5,8.8,83.5,0,60,0.3,315,�k��,6.1,27
2011/10/13,9:00:00,270,��,1.1,13.2,70.3,0,60,0.48,338,�k�k��,4.3,25
2011/10/13,10:00:00,315,�k��,1.6,16,53.1,0,60,0.61,203,��쐼,2.8,50
2011/10/13,11:00:00,135,�쓌,2.3,16.5,49.3,0,60,0.69,158,��쓌,4.3,57
2011/10/13,12:00:00,158,��쓌,2.6,16.2,47.1,0,60,0.7,180,��,4.8,58
2011/10/13,13:00:00,180,��,2.9,16.2,42.2,0,60,0.66,180,��,5.5,47
2011/10/13,14:00:00,180,��,2.5,15.9,45.4,0,60,0.56,180,��,6.2,36
2011/10/13,15:00:00,180,��,2.1,15.5,55,0,60,0.4,180,��,4.9,8
2011/10/13,16:00:00,225,�쐼,1.3,14.6,72,0,58,0.21,203,��쐼,2.7,28
2011/10/13,17:00:00,270,��,0.8,9.5,90.8,0,0,0.04,248,���쐼,1.7,4
2011/10/13,18:00:00,270,��,1.5,7.7,96,0,0,0.01,293,���k��,2.2,55
2011/10/13,19:00:00,315,�k��,2.4,7.2,95.3,0,0,0.01,315,�k��,2.8,53
2011/10/13,20:00:00,293,���k��,3,6.7,93.4,0,0,0.01,270,��,4.6,33
2011/10/13,21:00:00,293,���k��,2.6,6,93.2,0,0,0.01,293,���k��,4,13
2011/10/13,22:00:00,293,���k��,3.1,5.3,93.1,0,0,0.01,293,���k��,4.4,25
2011/10/13,23:00:00,293,���k��,3.1,5.5,90.9,0,0,0.01,315,�k��,4.6,35
2011/10/13,0:00:00,293,���k��,3.2,5.8,87.1,0,0,0.01,315,�k��,4.5,58
2011/10/14,1:00:00,293,���k��,3.2,5.7,85.4,0,0,0.01,293,���k��,4.7,52
2011/10/14,2:00:00,293,���k��,1.5,4.9,86.8,0,0,0.01,293,���k��,4.9,3
2011/10/14,3:00:00,315,�k��,1.8,2.6,93.8,0,0,0.01,293,���k��,2.5,52
2011/10/14,4:00:00,270,��,2.4,1.7,96.7,0,0,0.01,270,��,3,46
2011/10/14,5:00:00,293,���k��,1.9,1.4,98.3,0,0,0.01,293,���k��,3.3,28
2011/10/14,6:00:00,293,���k��,2.3,1.7,98.3,0,0,0.02,293,���k��,2.7,55
2011/10/14,7:00:00,293,���k��,2,4.9,92.4,0,25,0.12,293,���k��,3.4,12
2011/10/14,8:00:00,315,�k��,0.7,9.1,82.4,0,60,0.25,270,��,2.7,0
2011/10/14,9:00:00,90,��,0.5,14,68,0,60,0.45,90,��,1.7,59
2011/10/14,10:00:00,113,���쓌,1.1,15.3,66.5,0,60,0.56,113,���쓌,3,59
2011/10/14,11:00:00,90,��,1.2,16.5,61.4,0,60,0.64,90,��,3.8,26
2011/10/14,12:00:00,90,��,2.2,17.1,60.2,0,60,0.68,90,��,4.2,17
2011/10/14,13:00:00,68,���k��,2.5,17.7,61.7,0,60,0.61,113,���쓌,3.5,13
2011/10/14,14:00:00,90,��,3.1,15.4,68.3,0,60,0.41,90,��,4.2,53
2011/10/14,15:00:00,90,��,1.3,15.4,76.5,0,60,0.21,45,�k��,3.7,15
2011/10/14,16:00:00,45,�k��,1.4,13.3,85.1,0,27,0.12,68,���k��,3,12
2011/10/14,17:00:00,293,�É�,0.2,11.2,93.8,0,0,0.03,23,�k�k��,2.7,16
2011/10/14,18:00:00,293,���k��,2,10.2,95.9,0,0,0.01,293,���k��,2.8,52
2011/10/14,19:00:00,270,��,0.5,9.5,96.3,0,0,0.01,338,�k�k��,2.2,39
2011/10/14,20:00:00,293,���k��,1.3,8.7,97.1,0,0,0.01,225,�쐼,2.7,8
2011/10/14,21:00:00,270,��,1.9,8.6,97.3,0,0,0.01,293,���k��,2.4,29
2011/10/14,22:00:00,315,�É�,0,8.5,95.1,0,0,0.01,315,�k��,2.4,32
2011/10/14,23:00:00,293,���k��,0.8,8.7,95.2,0,0,0.01,338,�k�k��,2.6,31
2011/10/14,0:00:00,315,�k��,1.3,9.6,94.6,0,0,0.01,293,���k��,2.5,14
2011/10/15,1:00:00,315,�k��,1.1,10.5,90.7,0,0,0.01,315,�k��,4.8,24
2011/10/15,2:00:00,315,�k��,1.3,10.4,93.4,0,0,0.01,315,�k��,3.3,39
2011/10/15,3:00:00,315,�k��,2.7,10.3,94.1,1,0,0.01,315,�k��,4.1,58
2011/10/15,4:00:00,315,�k��,1.6,10.1,94.9,0.5,0,0.01,338,�k�k��,4.2,5
2011/10/15,5:00:00,315,�k��,2.7,9.7,96.6,3,0,0.01,315,�k��,5.4,38
2011/10/15,6:00:00,315,�k��,3.8,9.8,97.6,5,0,0.01,315,�k��,7,6
2011/10/15,7:00:00,315,�k��,3.8,9.7,97.2,4.5,0,0.01,315,�k��,7,35
2011/10/15,8:00:00,315,�k��,4.9,9.8,96.6,0.5,0,0.04,315,�k��,7.8,48
2011/10/15,9:00:00,315,�k��,4.9,10.5,96.3,0,9,0.09,315,�k��,8.2,8
2011/10/15,10:00:00,315,�k��,3.4,11.7,95,0,60,0.22,293,���k��,7.9,1
2011/10/15,11:00:00,338,�k�k��,1.6,12.5,94.4,0,26,0.13,315,�k��,5,30
2011/10/15,12:00:00,293,���k��,1.1,13.6,91.7,0,38,0.14,338,�k�k��,3.9,36
2011/10/15,13:00:00,270,��,1.2,16.4,89.3,0,60,0.35,270,��,2.8,54
2011/10/15,14:00:00,248,���쐼,1.2,17.2,87.3,0,60,0.33,338,�k�k��,2.8,21
2011/10/15,15:00:00,180,��,3.1,15,90.3,0,60,0.23,180,��,4.7,56
2011/10/15,16:00:00,180,��,2,14.6,93.8,0,25,0.13,203,��쐼,4.4,23
2011/10/15,17:00:00,270,��,1.4,13.7,96.5,0,0,0.02,203,��쐼,3.8,16
2011/10/15,18:00:00,270,�É�,0.2,13.7,97.4,0,0,0.01,270,��,2.4,32
2011/10/15,19:00:00,270,�É�,0.2,13.4,98.3,0,0,0.01,203,��쐼,1.7,47
2011/10/15,20:00:00,248,�É�,0.2,13.8,98.5,0,0,0.01,248,���쐼,2.2,15